Zurück zum Katalog

METEOR 1-22

AktivWetterPO
NORAD 8293·PAYLOAD·🇷🇺 Russia

Gestartet Sep 18, 1975 von Plesetsk Cosmodrome

Loading…

Nächste Überflüge (nächste 24 Stunden)

TLE

AktuellSource: Space-Track

Epoche: Sep 14, 2026, 10:37 UTC

1 08293U 75087A   26257.44291482  .00000002  00000-0 -58844-5 0  9992
2 08293  81.2524 258.1531 0075818  73.8021 287.1477 14.12941235625675

Verfolge METEOR 1-22 in Echtzeit mit AllMySat

Download on the App Store